Danville, VA

9:38 PM EST on February 23, 2017 (GMT -0500)
Danville Regional

Weather History for KDAN - April, 2013

Change the Weather History Date:

Monday, April 1, 2013

  Actual Average Record
Temperature  
Mean Temperature 59 °F 54 °F  
Max Temperature 71 °F 65 °F 90 °F (1986)
Min Temperature 46 °F 43 °F 28 °F (1964)
Degree Days  
Heating Degree Days 6 12  
Month to date heating degree days 6 12  
Since 1 July heating degree days 3461 3523  
Cooling Degree Days 0 0  
Month to date cooling degree days 0 0  
Year to date cooling degree days 2 3  
Growing Degree Days 10 (Base 50)    
Moisture  
Dew Point 40 °F    
Average Humidity 58    
Maximum Humidity 86    
Minimum Humidity 29    
Precipitation  
Precipitation 0.01 in 0.13 in 1.35 in (1961)
Month to date precipitation 0.01 0.13  
Year to date precipitation 12.37 10.67  
Snow  
Snow 0.00 in - - ()
Month to date snowfall 0.0  
Since 1 July snowfall 1.7  
Snow Depth 0.00 in    
Sea Level Pressure  
Sea Level Pressure 29.85 in    
Wind  
Wind Speed 10 mph (WNW)    
Max Wind Speed 23 mph    
Max Gust Speed 30 mph    
Visibility 10 miles    
Events Rain    
T = Trace of Precipitation, MM = Missing Value Source: NWS Daily Summary

Daily Weather History Graph

Daily Weather History Graph

Search for Another Location

Airport or City:

Trip Planner

Search our weather history database for the weather conditions in past years. The results will help you decide how hot, cold, wet, or windy it might be!

Date:

Astronomy

Apr. 01, 2013 Rise Set
Actual Time 7:03 AM EDT 7:39 PM EDT
Civil Twilight 6:37 AM EDT 8:05 PM EDT
Nautical Twilight 6:06 AM EDT 8:36 PM EDT
Astronomical Twilight 5:35 AM EDT 9:07 PM EDT
Moon 12:39 AM EDT (4/1) 10:55 AM EDT (4/1)
Length of Visible Light 13h 28m
Length of Day
12h 36m
Waning Gibbous, 67% of the Moon is Illuminated
Apr 1
Waning Gibbous
Apr 3
Last Quarter
Apr 10
New
Apr 18
First Quarter
Apr 25
Full

Hourly Weather History & Observations

Time (EDT) Temp. Dew Point Humidity Pressure Visibility Wind Dir Wind Speed Gust Speed Precip Events Conditions
12:53 AM 55.9 °F 52.0 °F 87% 29.82 in 10.0 mi WSW 4.6 mph - 0.00 in Rain Light Rain
1:53 AM 55.9 °F 52.0 °F 87% 29.82 in 10.0 mi WSW 4.6 mph - 0.00 in Rain Light Rain
2:53 AM 55.9 °F 52.0 °F 87% 29.82 in 10.0 mi Calm Calm - 0.00 in   Overcast
3:53 AM 55.0 °F 51.1 °F 86% 29.81 in 10.0 mi West 3.5 mph - N/A   Overcast
4:53 AM 54.0 °F 48.0 °F 80% 29.81 in 10.0 mi NW 5.8 mph - N/A   Clear
5:53 AM 52.0 °F 45.0 °F 77% 29.83 in 10.0 mi WNW 3.5 mph - 0.01 in   Clear
6:53 AM 52.0 °F 41.0 °F 66% 29.85 in 10.0 mi WNW 6.9 mph - N/A   Clear
7:53 AM 51.1 °F 42.1 °F 71% 29.86 in 10.0 mi West 5.8 mph - N/A   Clear
8:53 AM 55.9 °F 42.1 °F 60% 29.86 in 10.0 mi West 4.6 mph - N/A   Clear
9:53 AM 59.0 °F 41.0 °F 51% 29.85 in 10.0 mi West 10.4 mph - N/A   Clear
10:53 AM 63.0 °F 42.1 °F 46% 29.85 in 10.0 mi WSW 6.9 mph - N/A   Clear
11:53 AM 66.0 °F 37.9 °F 36% 29.85 in 10.0 mi West 12.7 mph - N/A   Clear
12:53 PM 68.0 °F 39.0 °F 35% 29.82 in 10.0 mi WNW 9.2 mph 16.1 mph N/A   Clear
1:53 PM 71.1 °F 37.0 °F 29% 29.81 in 10.0 mi WNW 18.4 mph 27.6 mph N/A   Scattered Clouds
2:53 PM 68.0 °F 36.0 °F 31% 29.80 in 10.0 mi West 18.4 mph 28.8 mph N/A   Overcast
3:53 PM 66.9 °F 37.0 °F 33% 29.81 in 10.0 mi West 11.5 mph 20.7 mph N/A   Mostly Cloudy
4:53 PM 66.0 °F 39.9 °F 38% 29.83 in 10.0 mi WNW 11.5 mph 21.9 mph N/A   Mostly Cloudy
5:53 PM 64.0 °F 37.9 °F 38% 29.83 in 10.0 mi West 16.1 mph 21.9 mph N/A   Overcast
6:53 PM 63.0 °F 36.0 °F 37% 29.84 in 10.0 mi West 16.1 mph 21.9 mph N/A   Overcast
7:53 PM 62.1 °F 32.0 °F 32% 29.86 in 10.0 mi WNW 11.5 mph - N/A   Mostly Cloudy
8:53 PM 57.0 °F 34.0 °F 42% 29.88 in 10.0 mi NNW 5.8 mph - N/A   Clear
9:53 PM 51.1 °F 33.1 °F 50% 29.94 in 10.0 mi North 12.7 mph - N/A   Clear
10:53 PM 48.0 °F 30.9 °F 52% 29.96 in 10.0 mi North 13.8 mph 19.6 mph N/A   Clear
11:53 PM 46.9 °F 28.0 °F 48% 29.98 in 10.0 mi North 10.4 mph - N/A   Clear